False Pass, AK

8:31 PM HDT on April 29, 2017 (GMT -0900)
False Pass

Weather History for PAKF - February, 2014

Change the Weather History Date:

Wednesday, February 19, 2014

  Actual Average (PACD) Record (PACD)
Temperature  
Mean Temperature - -  
Max Temperature - 29 °F 43 °F (1957)
Min Temperature - 20 °F -1 °F (1974)
Moisture  
Dew Point -    
Average Humidity    
Maximum Humidity    
Minimum Humidity    
Precipitation  
Precipitation 0.00 in - - ()
Sea Level Pressure  
Sea Level Pressure 29.76 in    
Wind  
Wind Speed 7 mph (South)    
Max Wind Speed 16 mph    
Max Gust Speed 23 mph    
Visibility 7 miles    
Events      
Averages and records for this station are not official NWS values.
T = Trace of Precipitation, MM = Missing Value Source: NWS Daily Summary

Daily Weather History Graph

Daily Weather History Graph

Search for Another Location

Airport or City:

Trip Planner

Search our weather history database for the weather conditions in past years. The results will help you decide how hot, cold, wet, or windy it might be!

Date:

Astronomy

Feb. 19, 2014 Rise Set
Actual Time 8:06 AM HST 6:09 PM HST
Civil Twilight 7:29 AM HST 6:46 PM HST
Nautical Twilight 6:47 AM HST 7:28 PM HST
Astronomical Twilight 6:05 AM HST 8:10 PM HST
Moon No Moon Rise 9:28 AM HST (2/19)
Length of Visible Light 11h 17m
Length of Day
10h 03m
Waning Gibbous, 78% of the Moon is Illuminated
Feb 19
Waning Gibbous
Feb 22
Last Quarter
Feb 28
New
Mar 8
First Quarter
Mar 16
Full

Hourly Weather History & Observations

Time (HST) Temp. Dew Point Humidity Pressure Visibility Wind Dir Wind Speed Gust Speed Precip Events Conditions
12:01 AM - - N/A% 29.67 in 10.0 mi SW 4.6 mph - N/A   Clear
1:01 AM - - N/A% 29.69 in 10.0 mi WSW 10.4 mph - N/A   Clear
2:01 AM - - N/A% 29.70 in 10.0 mi South 5.8 mph - 0.00 in   Clear
3:01 AM - - N/A% 29.72 in 10.0 mi West 4.6 mph - N/A   Mostly Cloudy
4:01 AM - - N/A% 29.73 in 4.0 mi WNW 6.9 mph - 0.00 in   Unknown
4:16 AM - - N/A% 29.73 in 8.0 mi Calm Calm - 0.00 in   Unknown
4:26 AM - - N/A% 29.73 in 9.0 mi East 3.5 mph - 0.00 in   Unknown
5:01 AM - - N/A% 29.74 in 10.0 mi Variable 3.5 mph - 0.00 in   Clear
6:01 AM - - N/A% 29.75 in 10.0 mi SW 4.6 mph - N/A   Mostly Cloudy
7:01 AM - - N/A% 29.76 in 10.0 mi WSW 3.5 mph - N/A   Overcast
8:01 AM - - N/A% 29.78 in 10.0 mi SW 11.5 mph - N/A   Overcast
9:01 AM - - N/A% 29.80 in 10.0 mi WSW 6.9 mph - N/A   Partly Cloudy
10:01 AM - - N/A% 29.81 in 9.0 mi West 8.1 mph - 0.00 in   Unknown
11:01 AM - - N/A% 29.82 in 10.0 mi West 9.2 mph - 0.00 in   Clear
12:01 PM - - N/A% 29.83 in 10.0 mi South 5.8 mph - N/A   Clear
1:01 PM - - N/A% 29.84 in 10.0 mi South 3.5 mph - N/A   Clear
2:01 PM - - N/A% 29.84 in 10.0 mi Variable 3.5 mph - N/A   Clear
3:01 PM - - N/A% 29.83 in 10.0 mi ESE 4.6 mph - N/A   Mostly Cloudy
4:01 PM - - N/A% 29.83 in 10.0 mi SE 6.9 mph - N/A   Overcast
5:01 PM - - N/A% 29.82 in 10.0 mi SSE 8.1 mph - N/A   Partly Cloudy
6:01 PM - - N/A% 29.81 in 10.0 mi SE 6.9 mph - N/A   Overcast
7:01 PM - - N/A% 29.80 in 10.0 mi SSE 8.1 mph - N/A   Overcast
8:01 PM - - N/A% 29.79 in 9.0 mi SSE 11.5 mph 21.9 mph 0.00 in   Unknown
9:01 PM - - N/A% 29.77 in 5.0 mi SSE 12.7 mph - 0.00 in   Unknown
9:32 PM - - N/A% 29.76 in 4.0 mi SSE 9.2 mph - 0.00 in   Unknown
9:52 PM - - N/A% 29.76 in 2.5 mi South 9.2 mph - 0.00 in   Unknown
10:01 PM - - N/A% 29.75 in 2.5 mi SSE 12.7 mph - 0.00 in   Unknown
10:08 PM - - N/A% 29.75 in 3.0 mi SSE 10.4 mph - 0.00 in   Unknown
10:20 PM - - N/A% 29.75 in 2.5 mi SSE 11.5 mph 18.4 mph 0.00 in   Unknown
10:31 PM - - N/A% 29.74 in 2.5 mi SE 9.2 mph 19.6 mph 0.00 in   Unknown
10:42 PM - - N/A% 29.73 in 4.0 mi SE 11.5 mph 17.3 mph 0.00 in   Unknown
10:48 PM - - N/A% 29.73 in 4.0 mi SE 13.8 mph 20.7 mph 0.00 in   Unknown
11:01 PM - - N/A% 29.72 in 3.0 mi SE 13.8 mph 19.6 mph 0.00 in   Unknown
11:22 PM - - N/A% 29.71 in 3.0 mi SE 10.4 mph 18.4 mph 0.00 in   Unknown
11:36 PM - - N/A% 29.70 in 3.0 mi ESE 16.1 mph 23.0 mph 0.00 in   Unknown